| time (UTC) | temp F | wind direction | speed MPH | gust MPH | rain 1hr in | rain 24hr in | rain mn in | humidity % | barometer mb |
| 20260901070202 | 69 | 114 | 1.0 | 4.0 | 0.00 | 0.00 | 0.00 | 96 | 1009.4 |
| 20260901065701 | 69 | 217 | 1.0 | 2.0 | 0.00 | 0.00 | 0.00 | 96 | 1009.3 |
| 20260901065156 | 69 | 333 | 2.0 | 5.0 | 0.00 | 0.00 | 0.00 | 95 | 1009.3 |
| 20260901064652 | 70 | 327 | 0.0 | 3.0 | 0.00 | 0.00 | 0.00 | 95 | 1009.3 |
| 20260901064149 | 70 | 334 | 2.0 | 4.0 | 0.00 | 0.00 | 0.00 | 94 | 1009.4 |
| 20260901063646 | 70 | 325 | 2.0 | 3.0 | 0.00 | 0.00 | 0.00 | 94 | 1009.5 |
| 20260901063141 | 71 | 324 | 3.0 | 4.0 | 0.00 | 0.00 | 0.00 | 94 | 1009.5 |
| 20260901062637 | 71 | 303 | 2.0 | 4.0 | 0.00 | 0.00 | 0.00 | 95 | 1009.4 |
| 20260901062133 | 70 | 314 | 1.0 | 3.0 | 0.00 | 0.00 | 0.00 | 95 | 1009.4 |
| 20260901061629 | 70 | 87 | 0.0 | 4.0 | 0.00 | 0.00 | 0.00 | 96 | 1009.2 |
| 20260901061129 | 70 | 269 | 1.0 | 2.0 | 0.00 | 0.00 | 0.00 | 96 | 1009.1 |
| 20260901060624 | 70 | 312 | 0.0 | 2.0 | 0.00 | 0.00 | 0.00 | 96 | 1009.2 |
| 20260901060119 | 70 | 326 | 0.0 | 2.0 | 0.00 | 0.00 | 0.00 | 96 | 1009.1 |
| 20260901055614 | 70 | 253 | 0.0 | 2.0 | 0.00 | 0.00 | 0.00 | 96 | 1009.2 |
| 20260901055110 | 70 | 322 | 1.0 | 2.0 | 0.00 | 0.00 | 0.00 | 96 | 1009.2 |
| 20260901054607 | 70 | 342 | 1.0 | 2.0 | 0.00 | 0.00 | 0.00 | 96 | 1009.0 |
| 20260901054102 | 70 | 342 | 2.0 | 3.0 | 0.00 | 0.00 | 0.00 | 96 | 1008.9 |
| 20260901053559 | 71 | 312 | 2.0 | 3.0 | 0.00 | 0.00 | 0.00 | 96 | 1008.9 |
| 20260901053054 | 71 | 303 | 2.0 | 3.0 | 0.00 | 0.00 | 0.00 | 96 | 1009.0 |
| 20260901052549 | 71 | 325 | 2.0 | 3.0 | 0.00 | 0.00 | 0.00 | 96 | 1008.9 |
| 20260901052050 | 71 | 319 | 0.0 | 3.0 | 0.00 | 0.00 | 0.00 | 96 | 1008.9 |
| 20260901051550 | 71 | 335 | 0.0 | 3.0 | 0.00 | 0.00 | 0.00 | 95 | 1008.8 |
| 20260901051049 | 71 | 320 | 2.0 | 3.0 | 0.00 | 0.00 | 0.00 | 95 | 1008.8 |
| 20260901050544 | 71 | 313 | 3.0 | 4.0 | 0.00 | 0.00 | 0.00 | 95 | 1008.7 |
| 20260901050039 | 71 | 318 | 1.0 | 2.0 | 0.00 | 0.00 | 0.00 | 95 | 1008.7 |
| 20260901045534 | 72 | 321 | 1.0 | 3.0 | 0.00 | 0.00 | 0.00 | 94 | 1008.6 |
| 20260901045034 | 72 | 32 | 0.0 | 3.0 | 0.00 | 0.00 | 0.00 | 94 | 1008.8 |
| 20260901044530 | 72 | 316 | 1.0 | 4.0 | 0.00 | 0.00 | 0.00 | 94 | 1008.9 |
| 20260901044026 | 72 | 53 | 0.0 | 2.0 | 0.00 | 0.00 | 0.00 | 94 | 1008.6 |
| 20260901043521 | 72 | 328 | 2.0 | 3.0 | 0.00 | 0.00 | 0.00 | 93 | 1008.7 |
| 20260901043017 | 73 | 319 | 0.0 | 3.0 | 0.00 | 0.00 | 0.00 | 93 | 1008.6 |
| 20260901042516 | 73 | 307 | 0.0 | 3.0 | 0.00 | 0.00 | 0.00 | 92 | 1008.9 |
| 20260901042011 | 73 | 229 | 0.0 | 4.0 | 0.00 | 0.00 | 0.00 | 92 | 1008.6 |
| 20260901041507 | 74 | 272 | 1.0 | 4.0 | 0.00 | 0.00 | 0.00 | 91 | 1008.5 |
| 20260901041001 | 74 | 323 | 0.0 | 4.0 | 0.00 | 0.00 | 0.00 | 90 | 1008.5 |
| 20260901040456 | 75 | 282 | 0.0 | 2.0 | 0.00 | 0.00 | 0.00 | 89 | 1008.7 |
| 20260901035954 | 75 | 180 | 0.0 | 3.0 | 0.00 | 0.00 | 0.00 | 89 | 1008.6 |
| 20260901035453 | 75 | 321 | 0.0 | 3.0 | 0.00 | 0.00 | 0.00 | 88 | 1008.3 |
| 20260901034952 | 76 | 255 | 0.0 | 3.0 | 0.00 | 0.00 | 0.00 | 88 | 1008.6 |
| 20260901034447 | 76 | 2 | 0.0 | 3.0 | 0.00 | 0.00 | 0.00 | 87 | 1008.6 |
| 20260901033942 | 76 | 180 | 2.0 | 2.0 | 0.00 | 0.00 | 0.00 | 87 | 1008.7 |
| 20260901033441 | 76 | 242 | 1.0 | 3.0 | 0.00 | 0.00 | 0.00 | 88 | 1008.5 |
| 20260901032939 | 77 | 328 | 0.0 | 3.0 | 0.00 | 0.00 | 0.00 | 88 | 1008.2 |
| 20260901032434 | 77 | 342 | 0.0 | 5.0 | 0.00 | 0.00 | 0.00 | 89 | 1008.6 |
| 20260901031929 | 77 | 0 | 0.0 | 2.0 | 0.00 | 0.00 | 0.00 | 90 | 1008.3 |
| 20260901031425 | 77 | 242 | 0.0 | 3.0 | 0.00 | 0.00 | 0.00 | 89 | 1008.5 |
| 20260901030924 | 77 | 297 | 0.0 | 2.0 | 0.00 | 0.00 | 0.00 | 90 | 1008.5 |
| 20260901030420 | 77 | 197 | 0.0 | 3.0 | 0.00 | 0.00 | 0.00 | 91 | 1008.3 |
| 20260901025919 | 77 | 269 | 0.0 | 2.0 | 0.00 | 0.00 | 0.00 | 92 | 1008.3 |
| 20260901025415 | 78 | 182 | 1.0 | 3.0 | 0.00 | 0.00 | 0.00 | 92 | 1008.3 |
| 20260901024908 | 78 | 203 | 0.0 | 3.0 | 0.00 | 0.00 | 0.00 | 92 | 1008.5 |
| 20260901024407 | 78 | 243 | 0.0 | 2.0 | 0.00 | 0.00 | 0.00 | 92 | 1008.2 |
| 20260901023906 | 78 | 248 | 0.0 | 3.0 | 0.00 | 0.00 | 0.00 | 92 | 1008.3 |
| 20260901023356 | 78 | 191 | 0.0 | 2.0 | 0.00 | 0.00 | 0.00 | 92 | 1008.1 |
| 20260901022851 | 78 | 211 | 0.0 | 1.0 | 0.00 | 0.00 | 0.00 | 92 | 1008.2 |
| 20260901022347 | 78 | 227 | 2.0 | 2.0 | 0.00 | 0.00 | 0.00 | 92 | 1008.1 |
| 20260901021842 | 79 | 194 | 0.0 | 2.0 | 0.00 | 0.00 | 0.00 | 92 | 1008.2 |
| 20260901021337 | 79 | 199 | 2.0 | 3.0 | 0.00 | 0.00 | 0.00 | 91 | 1008.3 |
| 20260901020831 | 79 | 227 | 1.0 | 2.0 | 0.00 | 0.00 | 0.00 | 91 | 1008.1 |
| 20260901020327 | 79 | 210 | 0.0 | 2.0 | 0.00 | 0.00 | 0.00 | 91 | 1007.9 |
| 20260901015821 | 79 | 304 | 0.0 | 2.0 | 0.00 | 0.00 | 0.00 | 90 | 1008.0 |
| 20260901015318 | 79 | 246 | 0.0 | 3.0 | 0.00 | 0.00 | 0.00 | 90 | 1007.9 |
| 20260901014817 | 80 | 198 | 0.0 | 3.0 | 0.00 | 0.00 | 0.00 | 89 | 1008.0 |
| 20260901014313 | 80 | 250 | 0.0 | 4.0 | 0.00 | 0.00 | 0.00 | 89 | 1007.9 |
| 20260901013809 | 80 | 256 | 0.0 | 2.0 | 0.00 | 0.00 | 0.00 | 89 | 1007.6 |
| 20260901013304 | 80 | 248 | 1.0 | 3.0 | 0.00 | 0.00 | 0.00 | 89 | 1007.7 |
| 20260901012759 | 80 | 224 | 3.0 | 4.0 | 0.00 | 0.00 | 0.00 | 89 | 1007.7 |
| 20260901012259 | 81 | 223 | 2.0 | 3.0 | 0.00 | 0.00 | 0.00 | 88 | 1007.8 |
| 20260901011755 | 81 | 220 | 3.0 | 5.0 | 0.00 | 0.00 | 0.00 | 88 | 1007.5 |
| 20260901011250 | 81 | 220 | 1.0 | 3.0 | 0.00 | 0.00 | 0.00 | 88 | 1007.6 |
| 20260901010744 | 81 | 209 | 0.0 | 2.0 | 0.00 | 0.00 | 0.00 | 87 | 1007.6 |
| 20260901010239 | 81 | 304 | 0.0 | 2.0 | 0.00 | 0.00 | 0.00 | 86 | 1007.4 |
| 20260901005737 | 82 | 233 | 1.0 | 3.0 | 0.00 | 0.00 | 0.00 | 86 | 1007.8 |
| 20260901005233 | 82 | 214 | 2.0 | 3.0 | 0.00 | 0.00 | 0.00 | 85 | 1007.5 |
| 20260901004733 | 82 | 205 | 3.0 | 3.0 | 0.00 | 0.00 | 0.00 | 85 | 1007.5 |
| 20260901004227 | 82 | 217 | 0.0 | 2.0 | 0.00 | 0.00 | 0.00 | 84 | 1007.6 |
| 20260901003722 | 82 | 201 | 0.0 | 3.0 | 0.00 | 0.00 | 0.00 | 84 | 1007.5 |
| 20260901003221 | 82 | 224 | 1.0 | 2.0 | 0.00 | 0.00 | 0.00 | 83 | 1007.4 |
| 20260901002715 | 83 | 224 | 0.0 | 2.0 | 0.00 | 0.00 | 0.00 | 83 | 1007.4 |
| 20260901002210 | 83 | 234 | 0.0 | 2.0 | 0.00 | 0.00 | 0.00 | 83 | 1007.6 |
| 20260901001705 | 84 | 217 | 0.0 | 1.0 | 0.00 | 0.00 | 0.00 | 81 | 1007.5 |
| 20260901001200 | 84 | 160 | 0.0 | 1.0 | 0.00 | 0.00 | 0.00 | 80 | 1007.4 |
| 20260901000650 | 84 | 218 | 0.0 | 2.0 | 0.00 | 0.00 | 0.00 | 81 | 1007.4 |
| 20260901000145 | 84 | 217 | 0.0 | 3.0 | 0.00 | 0.00 | 0.00 | 81 | 1007.4 |
| 20260831235638 | 84 | 195 | 0.0 | 3.0 | 0.00 | 0.00 | 0.00 | 81 | 1007.3 |
| 20260831235134 | 85 | 208 | 2.0 | 2.0 | 0.00 | 0.00 | 0.00 | 79 | 1007.3 |
| 20260831234633 | 85 | 165 | 0.0 | 2.0 | 0.00 | 0.00 | 0.00 | 79 | 1007.4 |
| 20260831234129 | 85 | 164 | 2.0 | 3.0 | 0.00 | 0.00 | 0.00 | 78 | 1007.4 |
| 20260831233624 | 86 | 205 | 1.0 | 2.0 | 0.00 | 0.00 | 0.00 | 75 | 1007.4 |
| 20260831233119 | 86 | 183 | 2.0 | 3.0 | 0.00 | 0.00 | 0.00 | 75 | 1007.2 |
| 20260831232614 | 86 | 257 | 0.0 | 2.0 | 0.00 | 0.00 | 0.00 | 75 | 1007.3 |
| 20260831232110 | 87 | 199 | 1.0 | 3.0 | 0.00 | 0.00 | 0.00 | 75 | 1007.1 |
| 20260831231606 | 87 | 184 | 0.0 | 2.0 | 0.00 | 0.00 | 0.00 | 75 | 1007.2 |
| 20260831231102 | 87 | 212 | 1.0 | 2.0 | 0.00 | 0.00 | 0.00 | 73 | 1007.1 |
| 20260831230558 | 89 | 185 | 0.0 | 2.0 | 0.00 | 0.00 | 0.00 | 70 | 1007.5 |
| 20260831230057 | 89 | 233 | 1.0 | 3.0 | 0.00 | 0.00 | 0.00 | 70 | 1007.3 |
| 20260831225553 | 88 | 272 | 1.0 | 3.0 | 0.00 | 0.00 | 0.00 | 74 | 1007.1 |
| 20260831225047 | 88 | 242 | 1.0 | 5.0 | 0.00 | 0.00 | 0.00 | 74 | 1007.4 |
| 20260831224542 | 88 | 215 | 1.0 | 3.0 | 0.00 | 0.00 | 0.00 | 74 | 1007.1 |
| 20260831224038 | 87 | 205 | 1.0 | 6.0 | 0.00 | 0.00 | 0.00 | 78 | 1007.1 |
| 20260831223533 | 87 | 149 | 1.0 | 6.0 | 0.00 | 0.00 | 0.00 | 76 | 1007.2 |
| 20260831223029 | 89 | 200 | 1.0 | 4.0 | 0.00 | 0.00 | 0.00 | 75 | 1007.1 |
| 20260831222525 | 89 | 219 | 1.0 | 3.0 | 0.00 | 0.00 | 0.00 | 75 | 1007.0 |
| 20260831222025 | 87 | 181 | 1.0 | 3.0 | 0.00 | 0.00 | 0.00 | 77 | 1007.0 |
| 20260831221521 | 89 | 184 | 2.0 | 5.0 | 0.00 | 0.00 | 0.00 | 74 | 1007.0 |
| 20260831221015 | 90 | 144 | 2.0 | 3.0 | 0.00 | 0.00 | 0.00 | 73 | 1007.0 |
| 20260831220511 | 89 | 218 | 0.0 | 4.0 | 0.00 | 0.00 | 0.00 | 74 | 1007.0 |
| 20260831220007 | 90 | 339 | 3.0 | 6.0 | 0.00 | 0.00 | 0.00 | 73 | 1007.0 |
| 20260831215502 | 90 | 205 | 3.0 | 6.0 | 0.00 | 0.00 | 0.00 | 74 | 1007.0 |
| 20260831214958 | 89 | 227 | 0.0 | 3.0 | 0.00 | 0.00 | 0.00 | 74 | 1006.9 |
| 20260831214455 | 91 | 174 | 0.0 | 4.0 | 0.00 | 0.00 | 0.00 | 71 | 1006.9 |
| 20260831213950 | 91 | 236 | 1.0 | 3.0 | 0.00 | 0.00 | 0.00 | 72 | 1006.7 |
| 20260831213447 | 91 | 185 | 2.0 | 2.0 | 0.00 | 0.00 | 0.00 | 72 | 1006.8 |
| 20260831212947 | 90 | 281 | 1.0 | 4.0 | 0.00 | 0.00 | 0.00 | 73 | 1006.8 |
| 20260831212443 | 88 | 190 | 2.0 | 3.0 | 0.00 | 0.00 | 0.00 | 76 | 1006.7 |
| 20260831211942 | 87 | 193 | 2.0 | 7.0 | 0.00 | 0.00 | 0.00 | 77 | 1006.9 |
| 20260831211437 | 89 | 210 | 2.0 | 5.0 | 0.00 | 0.00 | 0.00 | 75 | 1007.0 |
| 20260831210931 | 88 | 236 | 0.0 | 2.0 | 0.00 | 0.00 | 0.00 | 77 | 1006.8 |
| 20260831210427 | 87 | 189 | 1.0 | 3.0 | 0.00 | 0.00 | 0.00 | 79 | 1006.7 |
| 20260831205923 | 86 | 211 | 2.0 | 3.0 | 0.00 | 0.00 | 0.00 | 78 | 1006.7 |
| 20260831205419 | 86 | 235 | 0.0 | 3.0 | 0.00 | 0.00 | 0.00 | 78 | 1006.7 |
| 20260831204918 | 86 | 229 | 1.0 | 2.0 | 0.00 | 0.00 | 0.00 | 79 | 1006.7 |
| 20260831204418 | 86 | 179 | 1.0 | 2.0 | 0.00 | 0.00 | 0.00 | 80 | 1006.6 |
| 20260831203912 | 85 | 62 | 0.0 | 2.0 | 0.00 | 0.00 | 0.00 | 80 | 1006.7 |
| 20260831203407 | 86 | 37 | 0.0 | 3.0 | 0.00 | 0.00 | 0.00 | 78 | 1006.6 |
| 20260831202904 | 86 | 136 | 1.0 | 3.0 | 0.00 | 0.00 | 0.00 | 80 | 1006.6 |
| 20260831202359 | 84 | 25 | 0.0 | 2.0 | 0.00 | 0.00 | 0.00 | 81 | 1006.8 |
| 20260831201854 | 84 | 336 | 2.0 | 3.0 | 0.00 | 0.00 | 0.00 | 81 | 1006.7 |
| 20260831201353 | 84 | 356 | 1.0 | 3.0 | 0.00 | 0.00 | 0.00 | 81 | 1006.7 |
| 20260831200849 | 85 | 32 | 2.0 | 3.0 | 0.00 | 0.00 | 0.00 | 81 | 1006.5 |
| 20260831200343 | 85 | 15 | 2.0 | 3.0 | 0.00 | 0.00 | 0.00 | 81 | 1006.6 |
| 20260831195839 | 84 | 14 | 3.0 | 5.0 | 0.00 | 0.00 | 0.00 | 81 | 1006.3 |
| 20260831195334 | 84 | 46 | 2.0 | 4.0 | 0.00 | 0.00 | 0.00 | 82 | 1006.3 |
| 20260831194830 | 84 | 340 | 0.0 | 4.0 | 0.00 | 0.00 | 0.00 | 82 | 1006.4 |
| 20260831194325 | 84 | 333 | 0.0 | 3.0 | 0.00 | 0.00 | 0.00 | 82 | 1006.3 |
| 20260831193824 | 84 | 17 | 2.0 | 4.0 | 0.00 | 0.00 | 0.00 | 81 | 1006.4 |
| 20260831193319 | 84 | 327 | 1.0 | 3.0 | 0.00 | 0.00 | 0.00 | 81 | 1006.5 |
| 20260831192815 | 84 | 309 | 0.0 | 4.0 | 0.00 | 0.00 | 0.00 | 80 | 1006.6 |
| 20260831192309 | 84 | 256 | 0.0 | 2.0 | 0.00 | 0.00 | 0.00 | 80 | 1006.7 |
| 20260831191805 | 84 | 233 | 0.0 | 5.0 | 0.00 | 0.00 | 0.00 | 81 | 1006.7 |
| 20260831191301 | 84 | 104 | 0.0 | 5.0 | 0.00 | 0.00 | 0.00 | 81 | 1006.8 |
| 20260831190756 | 84 | 188 | 1.0 | 5.0 | 0.00 | 0.00 | 0.00 | 81 | 1006.7 |
| 20260831190250 | 85 | 318 | 2.0 | 4.0 | 0.00 | 0.00 | 0.00 | 80 | 1006.8 |
| 20260831185750 | 85 | 316 | 1.0 | 4.0 | 0.00 | 0.00 | 0.00 | 79 | 1006.6 |
| 20260831185246 | 85 | 24 | 3.0 | 5.0 | 0.00 | 0.00 | 0.00 | 79 | 1006.6 |
| 20260831184745 | 86 | 325 | 3.0 | 5.0 | 0.00 | 0.00 | 0.00 | 78 | 1006.5 |
| 20260831184241 | 86 | 329 | 2.0 | 6.0 | 0.00 | 0.00 | 0.00 | 77 | 1006.2 |
| 20260831183741 | 86 | 184 | 1.0 | 5.0 | 0.00 | 0.00 | 0.00 | 77 | 1006.4 |
| 20260831183236 | 87 | 28 | 2.0 | 4.0 | 0.00 | 0.00 | 0.00 | 74 | 1006.5 |
| 20260831182734 | 87 | 250 | 2.0 | 4.0 | 0.00 | 0.00 | 0.00 | 74 | 1006.5 |
| 20260831182230 | 87 | 142 | 0.0 | 3.0 | 0.00 | 0.00 | 0.00 | 74 | 1006.5 |
| 20260831181730 | 87 | 151 | 0.0 | 3.0 | 0.00 | 0.00 | 0.00 | 74 | 1006.4 |
| 20260831181226 | 88 | 210 | 2.0 | 4.0 | 0.00 | 0.00 | 0.00 | 70 | 1006.3 |
| 20260831180720 | 89 | 159 | 0.0 | 3.0 | 0.00 | 0.00 | 0.00 | 71 | 1006.4 |
| 20260831180220 | 89 | 154 | 1.0 | 3.0 | 0.00 | 0.00 | 0.00 | 71 | 1006.5 |
| 20260831175719 | 89 | 221 | 2.0 | 3.0 | 0.00 | 0.00 | 0.00 | 71 | 1006.4 |
| 20260831175217 | 89 | 324 | 3.0 | 4.0 | 0.00 | 0.00 | 0.00 | 70 | 1006.5 |
| 20260831174716 | 89 | 222 | 2.0 | 5.0 | 0.00 | 0.00 | 0.00 | 70 | 1006.6 |
| 20260831174212 | 87 | 202 | 2.0 | 4.0 | 0.00 | 0.00 | 0.00 | 74 | 1006.5 |
| 20260831173711 | 88 | 163 | 1.0 | 4.0 | 0.00 | 0.00 | 0.00 | 73 | 1006.8 |
| 20260831173206 | 88 | 201 | 2.0 | 5.0 | 0.00 | 0.00 | 0.00 | 73 | 1007.0 |
| 20260831172706 | 88 | 160 | 1.0 | 3.0 | 0.00 | 0.00 | 0.00 | 74 | 1006.9 |
| 20260831172202 | 87 | 162 | 4.0 | 7.0 | 0.00 | 0.00 | 0.00 | 73 | 1006.9 |
| 20260831171656 | 87 | 98 | 2.0 | 3.0 | 0.00 | 0.00 | 0.00 | 73 | 1007.0 |
| 20260831171154 | 86 | 205 | 2.0 | 5.0 | 0.00 | 0.00 | 0.00 | 76 | 1006.9 |
| 20260831170650 | 86 | 188 | 2.0 | 3.0 | 0.00 | 0.00 | 0.00 | 79 | 1007.2 |
| 20260831170147 | 85 | 174 | 1.0 | 3.0 | 0.00 | 0.00 | 0.00 | 78 | 1007.1 |
| 20260831165642 | 85 | 192 | 2.0 | 3.0 | 0.00 | 0.00 | 0.00 | 78 | 1007.2 |
| 20260831165139 | 84 | 214 | 3.0 | 4.0 | 0.00 | 0.00 | 0.00 | 79 | 1007.0 |
| 20260831164634 | 84 | 245 | 3.0 | 7.0 | 0.00 | 0.00 | 0.00 | 79 | 1006.7 |
| 20260831164130 | 84 | 167 | 1.0 | 5.0 | 0.00 | 0.00 | 0.00 | 82 | 1007.0 |
| 20260831163625 | 84 | 209 | 2.0 | 3.0 | 0.00 | 0.00 | 0.00 | 80 | 1006.9 |
| 20260831163121 | 84 | 208 | 1.0 | 3.0 | 0.00 | 0.00 | 0.00 | 81 | 1006.9 |
| 20260831162620 | 84 | 349 | 1.0 | 5.0 | 0.00 | 0.00 | 0.00 | 80 | 1006.6 |
| 20260831162117 | 84 | 128 | 1.0 | 5.0 | 0.00 | 0.00 | 0.00 | 78 | 1006.8 |
| 20260831161614 | 85 | 191 | 2.0 | 4.0 | 0.00 | 0.00 | 0.00 | 77 | 1006.7 |
| 20260831161110 | 85 | 209 | 2.0 | 5.0 | 0.00 | 0.00 | 0.00 | 79 | 1006.5 |
| 20260831160609 | 84 | 182 | 2.0 | 5.0 | 0.00 | 0.00 | 0.00 | 78 | 1006.6 |
| 20260831160105 | 84 | 151 | 0.0 | 3.0 | 0.00 | 0.00 | 0.00 | 79 | 1006.6 |
| 20260831155559 | 84 | 180 | 2.0 | 5.0 | 0.00 | 0.00 | 0.00 | 80 | 1006.7 |
| 20260831155054 | 84 | 221 | 0.0 | 4.0 | 0.00 | 0.00 | 0.00 | 79 | 1006.6 |
| 20260831154550 | 84 | 243 | 1.0 | 3.0 | 0.00 | 0.00 | 0.00 | 78 | 1006.6 |
| 20260831154044 | 84 | 219 | 2.0 | 5.0 | 0.00 | 0.00 | 0.00 | 80 | 1006.4 |
| 20260831153544 | 83 | 257 | 0.0 | 5.0 | 0.00 | 0.00 | 0.00 | 80 | 1006.3 |
| 20260831153041 | 83 | 228 | 2.0 | 4.0 | 0.00 | 0.00 | 0.00 | 81 | 1006.3 |
| 20260831152536 | 82 | 206 | 1.0 | 5.0 | 0.00 | 0.00 | 0.00 | 81 | 1006.2 |
| 20260831152032 | 82 | 227 | 1.0 | 4.0 | 0.00 | 0.00 | 0.00 | 81 | 1006.1 |
| 20260831151525 | 83 | 203 | 1.0 | 3.0 | 0.00 | 0.00 | 0.00 | 81 | 1006.0 |
| 20260831151025 | 83 | 180 | 0.0 | 3.0 | 0.00 | 0.00 | 0.00 | 82 | 1006.1 |
| 20260831150520 | 82 | 175 | 0.0 | 3.0 | 0.00 | 0.00 | 0.00 | 81 | 1005.8 |
| 20260831150016 | 82 | 335 | 0.0 | 4.0 | 0.00 | 0.00 | 0.00 | 81 | 1005.9 |
| 20260831145510 | 82 | 19 | 0.0 | 3.0 | 0.00 | 0.00 | 0.00 | 84 | 1005.9 |
| 20260831145006 | 81 | 254 | 1.0 | 3.0 | 0.00 | 0.00 | 0.00 | 83 | 1005.7 |
| 20260831144502 | 82 | 119 | 3.0 | 5.0 | 0.00 | 0.00 | 0.00 | 82 | 1006.0 |
| 20260831143957 | 82 | 154 | 2.0 | 3.0 | 0.00 | 0.00 | 0.00 | 82 | 1005.8 |
| 20260831143446 | 81 | 255 | 0.0 | 4.0 | 0.00 | 0.00 | 0.00 | 84 | 1005.8 |
| 20260831142942 | 80 | 182 | 2.0 | 4.0 | 0.00 | 0.00 | 0.00 | 86 | 1006.0 |
| 20260831142438 | 81 | 221 | 2.0 | 4.0 | 0.00 | 0.00 | 0.00 | 83 | 1005.9 |
| 20260831141932 | 81 | 146 | 0.0 | 3.0 | 0.00 | 0.00 | 0.00 | 83 | 1005.5 |
| 20260831141426 | 81 | 158 | 1.0 | 3.0 | 0.00 | 0.00 | 0.00 | 83 | 1005.5 |
| 20260831140921 | 81 | 1 | 0.0 | 5.0 | 0.00 | 0.00 | 0.00 | 83 | 1005.8 |
| 20260831140415 | 80 | 164 | 0.0 | 4.0 | 0.00 | 0.00 | 0.00 | 85 | 1005.5 |
| 20260831135914 | 80 | 222 | 2.0 | 8.0 | 0.00 | 0.00 | 0.00 | 85 | 1005.5 |
| 20260831135409 | 80 | 81 | 1.0 | 3.0 | 0.00 | 0.00 | 0.00 | 86 | 1005.7 |
| 20260831134904 | 79 | 223 | 3.0 | 6.0 | 0.00 | 0.00 | 0.00 | 86 | 1005.5 |
| 20260831134400 | 79 | 343 | 0.0 | 4.0 | 0.00 | 0.00 | 0.00 | 86 | 1005.5 |
| 20260831133859 | 78 | 293 | 1.0 | 3.0 | 0.00 | 0.00 | 0.00 | 87 | 1005.4 |
| 20260831133354 | 78 | 230 | 2.0 | 5.0 | 0.00 | 0.00 | 0.00 | 88 | 1005.4 |
| 20260831132849 | 77 | 254 | 2.0 | 5.0 | 0.00 | 0.00 | 0.00 | 90 | 1005.4 |
| 20260831132339 | 76 | 228 | 2.0 | 3.0 | 0.00 | 0.00 | 0.00 | 90 | 1005.1 |
| 20260831131838 | 76 | 221 | 2.0 | 4.0 | 0.00 | 0.00 | 0.00 | 91 | 1005.0 |
| 20260831131334 | 76 | 217 | 1.0 | 3.0 | 0.00 | 0.00 | 0.00 | 91 | 1005.1 |
| 20260831130829 | 75 | 209 | 0.0 | 3.0 | 0.00 | 0.00 | 0.00 | 92 | 1005.1 |
| 20260831130325 | 75 | 243 | 2.0 | 3.0 | 0.00 | 0.00 | 0.00 | 92 | 1005.1 |
| 20260831125824 | 74 | 229 | 1.0 | 3.0 | 0.00 | 0.00 | 0.00 | 93 | 1004.9 |
| 20260831125320 | 73 | 24 | 0.0 | 2.0 | 0.00 | 0.00 | 0.00 | 95 | 1005.0 |
| 20260831124819 | 73 | 202 | 3.0 | 5.0 | 0.00 | 0.00 | 0.00 | 95 | 1004.9 |
| 20260831124316 | 72 | 191 | 2.0 | 4.0 | 0.00 | 0.00 | 0.00 | 96 | 1005.0 |
| 20260831123815 | 72 | 210 | 3.0 | 6.0 | 0.00 | 0.00 | 0.00 | 97 | 1004.8 |
| 20260831123314 | 72 | 217 | 3.0 | 4.0 | 0.00 | 0.00 | 0.00 | 97 | 1004.7 |
| 20260831122809 | 71 | 211 | 3.0 | 5.0 | 0.00 | 0.00 | 0.00 | 98 | 1004.7 |
| 20260831122306 | 71 | 202 | 2.0 | 5.0 | 0.00 | 0.00 | 0.00 | 98 | 1004.6 |
| 20260831121759 | 71 | 193 | 4.0 | 5.0 | 0.00 | 0.00 | 0.00 | 98 | 1004.6 |
| 20260831121255 | 71 | 216 | 3.0 | 5.0 | 0.00 | 0.00 | 0.00 | 98 | 1004.6 |
| 20260831120750 | 71 | 210 | 3.0 | 3.0 | 0.00 | 0.00 | 0.00 | 99 | 1004.6 |
| 20260831120245 | 71 | 193 | 1.0 | 2.0 | 0.00 | 0.00 | 0.00 | 98 | 1004.5 |
| 20260831115740 | 71 | 243 | 0.0 | 3.0 | 0.00 | 0.00 | 0.00 | 99 | 1004.5 |
| 20260831115236 | 71 | 297 | 0.0 | 2.0 | 0.00 | 0.00 | 0.00 | 99 | 1004.5 |
| 20260831114735 | 71 | 216 | 2.0 | 3.0 | 0.00 | 0.00 | 0.00 | 99 | 1004.1 |
| 20260831114235 | 71 | 217 | 2.0 | 3.0 | 0.00 | 0.00 | 0.00 | 99 | 1004.3 |
| 20260831113730 | 71 | 209 | 3.0 | 4.0 | 0.00 | 0.00 | 0.00 | 99 | 1004.1 |
| 20260831113224 | 71 | 213 | 1.0 | 4.0 | 0.00 | 0.00 | 0.00 | 98 | 1004.3 |
| 20260831112718 | 71 | 208 | 3.0 | 5.0 | 0.00 | 0.00 | 0.00 | 99 | 1004.2 |
| 20260831112214 | 71 | 201 | 3.0 | 5.0 | 0.00 | 0.00 | 0.00 | 98 | 1004.2 |
| 20260831111709 | 71 | 209 | 3.0 | 5.0 | 0.00 | 0.00 | 0.00 | 98 | 1004.4 |
| 20260831111206 | 71 | 206 | 3.0 | 5.0 | 0.00 | 0.00 | 0.00 | 98 | 1004.4 |
| 20260831110701 | 71 | 210 | 2.0 | 5.0 | 0.00 | 0.00 | 0.00 | 98 | 1004.4 |
| 20260831110156 | 71 | 187 | 3.0 | 4.0 | 0.00 | 0.00 | 0.00 | 98 | 1004.3 |
| 20260831105655 | 71 | 189 | 2.0 | 5.0 | 0.00 | 0.00 | 0.00 | 98 | 1004.2 |
| 20260831105151 | 71 | 210 | 2.0 | 4.0 | 0.00 | 0.00 | 0.00 | 98 | 1004.3 |
| 20260831104645 | 71 | 221 | 2.0 | 6.0 | 0.00 | 0.00 | 0.00 | 97 | 1004.2 |
| 20260831104142 | 72 | 210 | 3.0 | 5.0 | 0.00 | 0.00 | 0.00 | 98 | 1004.2 |
| 20260831103636 | 71 | 221 | 3.0 | 5.0 | 0.00 | 0.00 | 0.00 | 98 | 1004.5 |
| 20260831103133 | 72 | 219 | 3.0 | 7.0 | 0.00 | 0.00 | 0.00 | 98 | 1004.3 |
| 20260831102632 | 71 | 206 | 3.0 | 6.0 | 0.00 | 0.00 | 0.00 | 98 | 1004.3 |
| 20260831102132 | 72 | 197 | 3.0 | 8.0 | 0.00 | 0.00 | 0.00 | 98 | 1004.3 |
| 20260831101633 | 71 | 220 | 4.0 | 7.0 | 0.00 | 0.00 | 0.00 | 98 | 1004.1 |
| 20260831101128 | 71 | 228 | 6.0 | 8.0 | 0.00 | 0.00 | 0.00 | 98 | 1004.3 |
| 20260831100624 | 71 | 206 | 5.0 | 8.0 | 0.00 | 0.00 | 0.00 | 98 | 1004.3 |
| 20260831100120 | 71 | 198 | 4.0 | 8.0 | 0.00 | 0.00 | 0.00 | 98 | 1004.2 |
| 20260831095618 | 71 | 214 | 5.0 | 6.0 | 0.00 | 0.00 | 0.00 | 99 | 1004.1 |
| 20260831095113 | 71 | 223 | 4.0 | 7.0 | 0.00 | 0.00 | 0.00 | 99 | 1004.5 |
| 20260831094609 | 71 | 200 | 4.0 | 6.0 | 0.00 | 0.00 | 0.00 | 99 | 1004.3 |
| 20260831094105 | 71 | 193 | 6.0 | 7.0 | 0.00 | 0.00 | 0.00 | 98 | 1004.5 |
| 20260831093600 | 71 | 207 | 3.0 | 8.0 | 0.00 | 0.00 | 0.00 | 98 | 1004.2 |
| 20260831093056 | 71 | 208 | 4.0 | 6.0 | 0.00 | 0.00 | 0.00 | 98 | 1004.2 |
| 20260831092552 | 71 | 209 | 4.0 | 5.0 | 0.00 | 0.00 | 0.00 | 98 | 1004.3 |
| 20260831092048 | 71 | 202 | 3.0 | 6.0 | 0.00 | 0.00 | 0.00 | 98 | 1004.2 |
| 20260831091548 | 71 | 202 | 6.0 | 8.0 | 0.00 | 0.00 | 0.00 | 98 | 1004.5 |
| 20260831091043 | 71 | 216 | 5.0 | 6.0 | 0.00 | 0.00 | 0.00 | 98 | 1004.3 |
| 20260831090538 | 71 | 211 | 3.0 | 7.0 | 0.00 | 0.00 | 0.00 | 98 | 1004.2 |
| 20260831090029 | 71 | 214 | 5.0 | 7.0 | 0.00 | 0.00 | 0.00 | 99 | 1004.4 |
| 20260831085524 | 71 | 204 | 3.0 | 6.0 | 0.00 | 0.00 | 0.00 | 99 | 1004.3 |
| 20260831085019 | 71 | 196 | 3.0 | 8.0 | 0.00 | 0.00 | 0.00 | 99 | 1004.3 |
| 20260831084515 | 71 | 209 | 4.0 | 7.0 | 0.00 | 0.00 | 0.00 | 99 | 1004.4 |
| 20260831084011 | 71 | 209 | 5.0 | 7.0 | 0.00 | 0.00 | 0.00 | 99 | 1004.3 |
| 20260831083506 | 71 | 203 | 4.0 | 6.0 | 0.00 | 0.00 | 0.00 | 99 | 1004.3 |
| 20260831083006 | 71 | 202 | 3.0 | 7.0 | 0.00 | 0.00 | 0.00 | 99 | 1004.3 |
| 20260831082500 | 71 | 194 | 3.0 | 6.0 | 0.00 | 0.00 | 0.00 | 99 | 1004.3 |
| 20260831081954 | 71 | 198 | 5.0 | 8.0 | 0.00 | 0.00 | 0.00 | 99 | 1004.3 |
| 20260831081450 | 71 | 190 | 3.0 | 5.0 | 0.00 | 0.00 | 0.00 | 99 | 1004.0 |
| 20260831080946 | 71 | 204 | 4.0 | 6.0 | 0.00 | 0.00 | 0.00 | 99 | 1004.3 |
| 20260831080440 | 71 | 215 | 5.0 | 7.0 | 0.00 | 0.00 | 0.00 | 99 | 1004.2 |
| 20260831075935 | 71 | 209 | 5.0 | 5.0 | 0.00 | 0.00 | 0.00 | 99 | 1004.6 |
| 20260831075431 | 71 | 198 | 3.0 | 6.0 | 0.00 | 0.00 | 0.00 | 98 | 1004.3 |
| 20260831074927 | 71 | 189 | 3.0 | 5.0 | 0.00 | 0.00 | 0.00 | 98 | 1004.5 |
| 20260831074421 | 71 | 192 | 3.0 | 4.0 | 0.00 | 0.00 | 0.00 | 98 | 1004.5 |
| 20260831073915 | 71 | 216 | 2.0 | 7.0 | 0.00 | 0.00 | 0.00 | 98 | 1004.5 |
| 20260831073415 | 71 | 212 | 3.0 | 7.0 | 0.00 | 0.00 | 0.00 | 98 | 1004.6 |
| 20260831072910 | 71 | 217 | 3.0 | 7.0 | 0.00 | 0.00 | 0.00 | 98 | 1004.5 |
| 20260831072405 | 71 | 205 | 2.0 | 7.0 | 0.00 | 0.00 | 0.00 | 97 | 1004.4 |
| 20260831071902 | 71 | 213 | 4.0 | 8.0 | 0.00 | 0.00 | 0.00 | 97 | 1004.5 |
| 20260831071400 | 71 | 194 | 3.0 | 6.0 | 0.00 | 0.00 | 0.00 | 97 | 1004.6 |
| 20260831070855 | 71 | 211 | 5.0 | 6.0 | 0.00 | 0.00 | 0.00 | 97 | 1004.5 |
| 20260831070354 | 72 | 221 | 3.0 | 5.0 | 0.00 | 0.00 | 0.00 | 96 | 1004.7 |